Home   Weather   Waidhofen an der Ybbs   Past weeks

Flag for Austria Past Weather in Waidhofen an der Ybbs, Lower Austria, Austria — Yesterday and Last 2 Weeks

Now
49 °F

Cool.


Feels Like: 47 °F
Forecast: 27 / 58 °F
Wind: 5 mph from West

Location: Amstetten

Current Time: Apr 23, 2017 at 4:00:46 pm

Latest Report: Apr 23, 2017 at 3:00 pm


Visibility: N/A

Pressure: 30.17 "Hg

Humidity: 50%

Dew Point: 31 °F

Location of Waidhofen an der YbbsLocation

Past Weather in Waidhofen an der Ybbs — Graph

°F

Waidhofen an der Ybbs Temperature Yesterday

Maximum temperature yesterday: 51 °F (at 5:00 pm)
Minimum temperature yesterday: 38 °F (at 12:00 am)
Average temperature yesterday: 46 °F

High & Low Weather Summary for the Past Weeks

 TemperatureHumidityPressure
High73 °F (Apr 10, 5:00 pm)100% (Apr 9, 2:00 am)30.55 "Hg (Apr 9, 2:00 am)
Low31 °F (Apr 21, 5:00 am)39% (Apr 9, 2:00 pm)29.83 "Hg (Apr 13, 6:00 am)
Average47 °F75%30.14 "Hg
* Reported Apr 8 1:00 pm — Apr 23 1:00 pm, Waidhofen an der Ybbs, Weather by CustomWeather, © 2017

Note: Actual official high and low records may vary slightly from our data, if they occured in-between our weather recording intervals... More about our weather records

Advertising

Waidhofen an der Ybbs Weather History for the Previous 24 Hours

Scroll right to see more
 ConditionsComfort  
Time TempWeatherWind HumidityBarometerVisibility
1:00 pm
Sun, Apr 23
48 °FCool.6 mph53%30.18 "HgN/A
12:00 pm44 °FQuite cool.6 mph64%30.20 "HgN/A
11:00 am47 °FCool.6 mph62%30.20 "HgN/A
10:00 am45 °FQuite cool.5 mph71%30.20 "HgN/A
9:00 am43 °FQuite cool.3 mph81%30.20 "HgN/A
8:00 am41 °FQuite cool.3 mph89%30.19 "HgN/A
7:00 am38 °FChilly.3 mph95%30.18 "HgN/A
6:00 am38 °FSprinkles. Cloudy.5 mph92%30.16 "HgN/A
5:00 am38 °FChilly.5 mph92%30.15 "HgN/A
4:00 am39 °FChilly.6 mph93%30.14 "HgN/A
3:00 am40 °FChilly.2 mph88%30.14 "HgN/A
2:00 am40 °FChilly.3 mph87%30.15 "HgN/A
1:00 am42 °FFog.5 mph80%30.16 "HgN/A
12:00 am42 °FQuite cool.2 mph97%30.14 "HgN/A
11:00 pm
Sat, Apr 22
42 °FQuite cool.2 mph93%30.13 "HgN/A
10:00 pm42 °FSprinkles. Overcast.2 mph99%30.13 "HgN/A
8:00 pm44 °FQuite cool.2 mph97%30.10 "HgN/A
7:00 pm49 °FCool.6 mph76%30.05 "HgN/A
6:00 pm51 °FCool.5 mph67%30.06 "HgN/A
5:00 pm51 °FCool.3 mph66%30.06 "HgN/A
4:00 pm51 °FCool.3 mph63%30.08 "HgN/A
Weather by CustomWeather, © 2017

See weather overviewHow to use our weather pages